Weather History for KITH - January, 2013

Change the Weather History Date:

Tuesday, January 15, 2013

  Actual Average Record
Temperature  
Mean Temperature 28 °F -  
Max Temperature 31 °F 30 °F 66 °F (1932)
Min Temperature 24 °F 15 °F -25 °F (1957)
Degree Days  
Heating Degree Days 38    
Moisture  
Dew Point 20 °F    
Average Humidity 71    
Maximum Humidity 85    
Minimum Humidity 59    
Precipitation  
Precipitation 0.00 in - - ()
Sea Level Pressure  
Sea Level Pressure 30.33 in    
Wind  
Wind Speed 3 mph (NNW)    
Max Wind Speed 6 mph    
Max Gust Speed -    
Visibility 10 miles    
Events      
Averages and records for this station are not official NWS values.
T = Trace of Precipitation, MM = Missing Value Source: NWS Daily Summary

Daily Weather History Graph

Daily Weather History Graph

Search for Another Location

Airport or City:

Trip Planner

Search our weather history database for the weather conditions in past years. The results will help you decide how hot, cold, wet, or windy it might be!

Date:

Astronomy

Jan. 15, 2013 Rise Set
Actual Time 7:32 AM EST 4:58 PM EST
Civil Twilight 7:01 AM EST 5:29 PM EST
Nautical Twilight 6:26 AM EST 6:04 PM EST
Astronomical Twilight 5:53 AM EST 6:38 PM EST
Moon 9:30 AM EST (1/15) 9:53 PM EST (1/15)
Length of Visible Light 10h 27m
Length of Day
9h 25m
Waxing Crescent, 19% of the Moon is Illuminated
Jan 15
Waxing Crescent
Jan 18
First Quarter
Jan 26
Full
Feb 3
Last Quarter
Feb 10
New

Hourly Weather History & Observations

Time (EST) Temp. Windchill Dew Point Humidity Pressure Visibility Wind Dir Wind Speed Gust Speed Precip Events Conditions
12:56 AM 28.0 °F 22.8 °F 21.0 °F 75% 30.33 in 10.0 mi NNE 4.6 mph - N/A   Overcast
1:56 AM 28.0 °F - 20.1 °F 72% 30.34 in 10.0 mi Calm Calm - N/A   Overcast
2:56 AM 28.0 °F 21.7 °F 20.1 °F 72% 30.35 in 10.0 mi North 5.8 mph - N/A   Overcast
3:43 AM 26.6 °F 22.6 °F 19.4 °F 74% 30.30 in 10.0 mi NNW 3.5 mph - N/A   Overcast
3:56 AM 27.1 °F 20.7 °F 20.1 °F 75% 30.34 in 10.0 mi North 5.8 mph - N/A   Overcast
4:56 AM 27.1 °F 20.7 °F 20.1 °F 75% 30.34 in 10.0 mi NNW 5.8 mph - N/A   Overcast
5:56 AM 26.1 °F 20.5 °F 20.1 °F 78% 30.34 in 10.0 mi NW 4.6 mph - N/A   Overcast
6:11 AM 26.6 °F 22.6 °F 19.4 °F 74% 30.29 in 10.0 mi NW 3.5 mph - N/A   Overcast
6:56 AM 25.2 °F 18.3 °F 20.1 °F 81% 30.35 in 10.0 mi NW 5.8 mph - N/A   Overcast
7:56 AM 24.1 °F 18.2 °F 20.1 °F 85% 30.38 in 10.0 mi NW 4.6 mph - N/A   Mostly Cloudy
8:56 AM 27.1 °F 23.2 °F 20.1 °F 75% 30.40 in 10.0 mi NW 3.5 mph - N/A   Mostly Cloudy
9:56 AM 28.0 °F 24.2 °F 20.1 °F 72% 30.40 in 10.0 mi North 3.5 mph - N/A   Mostly Cloudy
10:56 AM 29.1 °F 24.1 °F 19.0 °F 66% 30.40 in 10.0 mi NNW 4.6 mph - N/A   Mostly Cloudy
11:56 AM 30.0 °F 26.5 °F 18.1 °F 61% 30.38 in 10.0 mi WNW 3.5 mph - N/A   Mostly Cloudy
12:56 PM 30.0 °F - 18.1 °F 61% 30.35 in 10.0 mi Calm Calm - N/A   Mostly Cloudy
1:56 PM 31.1 °F - 18.1 °F 59% 30.32 in 10.0 mi Calm Calm - N/A   Scattered Clouds
2:56 PM 31.1 °F 27.7 °F 18.1 °F 59% 30.32 in 10.0 mi North 3.5 mph - N/A   Scattered Clouds
3:56 PM 30.0 °F 26.5 °F 18.1 °F 61% 30.33 in 10.0 mi NE 3.5 mph - N/A   Partly Cloudy
4:56 PM 29.1 °F - 18.1 °F 64% 30.34 in 10.0 mi Calm Calm - N/A   Partly Cloudy
6:56 PM 28.0 °F - 19.0 °F 69% 30.32 in 10.0 mi Calm Calm - N/A   Partly Cloudy
7:56 PM 27.1 °F - 20.1 °F 75% 30.30 in 10.0 mi Calm Calm - N/A   Clear
8:56 PM 28.0 °F - 20.1 °F 72% 30.29 in 10.0 mi Calm Calm - N/A   Clear
9:56 PM 28.0 °F 24.2 °F 20.1 °F 72% 30.26 in 10.0 mi ENE 3.5 mph - N/A   Clear
10:56 PM 27.1 °F - 20.1 °F 75% 30.25 in 10.0 mi Calm Calm - N/A   Clear
11:56 PM 28.0 °F 24.2 °F 21.0 °F 75% 30.22 in 10.0 mi ESE 3.5 mph - N/A   Clear